DAL114 SCCI-SABE

Flight info

Callsign DAL114
Flight time N/A
Altitude 33000
Route SIRUN4A SIRUN DCT ORUDO DCT SIPOB DCT VIE UW18 SANBU UT693 BCA UW22 VALOS VALOS9Q
Aircraft A21N/M-SDE3FGHIRWY/LB1

Departure

Time 2026-04-21 21:43
Airport President Carlos Ibáñez International Airport (SCCI)

Arrival

Time N/A
Airport Aeroparque Jorge Newbery (SABE)
Time Latitude Longitude Altitude Speed Heading
2026-04-21 21:06 -53.00465 -70.84609 134 ft 0 kts 267°
2026-04-21 21:06 -53.00446 -70.84450 134 ft 0 kts 177°
2026-04-21 21:29 -53.00433 -70.84452 134 ft 2 kts 177°
2026-04-21 21:30 -53.00419 -70.84453 134 ft 2 kts 177°
2026-04-21 21:30 -53.00406 -70.84454 134 ft 2 kts 177°
2026-04-21 21:30 -53.00389 -70.84459 134 ft 2 kts 140°
2026-04-21 21:30 -53.00380 -70.84487 134 ft 2 kts 90°
2026-04-21 21:31 -53.00382 -70.84511 134 ft 2 kts 86°
2026-04-21 21:31 -53.00382 -70.84533 134 ft 1 kts 90°
2026-04-21 21:31 -53.00382 -70.84538 134 ft 0 kts 89°
2026-04-21 21:33 -53.00382 -70.84526 134 ft 2 kts 89°
2026-04-21 21:33 -53.00381 -70.84471 134 ft 7 kts 89°
2026-04-21 21:33 -53.00362 -70.84394 134 ft 7 kts 36°
2026-04-21 21:33 -53.00308 -70.84374 133 ft 8 kts
2026-04-21 21:34 -53.00252 -70.84336 132 ft 10 kts 64°
2026-04-21 21:34 -53.00246 -70.84219 130 ft 8 kts 88°
2026-04-21 21:34 -53.00244 -70.84129 130 ft 8 kts 88°
2026-04-21 21:34 -53.00243 -70.84062 130 ft 4 kts 88°
2026-04-21 21:35 -53.00241 -70.84006 130 ft 5 kts 90°
2026-04-21 21:35 -53.00241 -70.83944 130 ft 6 kts 90°
2026-04-21 21:35 -53.00241 -70.83871 129 ft 8 kts 89°
2026-04-21 21:35 -53.00240 -70.83810 128 ft 3 kts 89°
2026-04-21 21:36 -53.00240 -70.83770 128 ft 4 kts 89°
2026-04-21 21:36 -53.00240 -70.83722 128 ft 4 kts 88°
2026-04-21 21:36 -53.00238 -70.83665 128 ft 5 kts 88°
2026-04-21 21:36 -53.00238 -70.83603 128 ft 6 kts 89°
2026-04-21 21:37 -53.00237 -70.83533 128 ft 6 kts 89°
2026-04-21 21:37 -53.00236 -70.83453 127 ft 8 kts 89°
2026-04-21 21:37 -53.00235 -70.83350 127 ft 9 kts 89°
2026-04-21 21:37 -53.00234 -70.83269 127 ft 4 kts 89°
2026-04-21 21:38 -53.00233 -70.83213 127 ft 5 kts 88°
2026-04-21 21:38 -53.00232 -70.83150 127 ft 6 kts 88°
2026-04-21 21:38 -53.00230 -70.83072 125 ft 3 kts 88°
2026-04-21 21:38 -53.00212 -70.83040 125 ft 5 kts 10°
2026-04-21 21:39 -53.00172 -70.83038 124 ft 6 kts 359°
2026-04-21 21:39 -53.00144 -70.83040 123 ft 0 kts 357°
2026-04-21 21:39 -53.00130 -70.83041 122 ft 6 kts 356°
2026-04-21 21:40 -53.00073 -70.83060 119 ft 10 kts 319°
2026-04-21 21:40 -53.00058 -70.83165 120 ft 10 kts 268°
2026-04-21 21:40 -53.00060 -70.83258 122 ft 8 kts 268°
2026-04-21 21:40 -53.00061 -70.83341 123 ft 8 kts 269°
2026-04-21 21:41 -53.00062 -70.83405 124 ft 0 kts 269°
2026-04-21 21:42 -53.00064 -70.83550 125 ft 45 kts 269°
2026-04-21 21:42 -53.00076 -70.84348 129 ft 108 kts 269°
2026-04-21 21:42 -53.00095 -70.85725 146 ft 158 kts 271°
2026-04-21 21:42 -53.00116 -70.87415 403 ft 174 kts 272°
2026-04-21 21:43 -53.00127 -70.89162 966 ft 173 kts 278°
2026-04-21 21:43 -52.99808 -70.90672 1670 ft 158 kts 312°
2026-04-21 21:43 -52.99147 -70.91806 2205 ft 158 kts 321°
2026-04-21 21:43 -52.98392 -70.92892 2526 ft 170 kts 321°
2026-04-21 21:44 -52.97604 -70.94070 2845 ft 184 kts 319°
2026-04-21 21:44 -52.96771 -70.95394 3225 ft 196 kts 317°
2026-04-21 21:44 -52.95918 -70.96818 3574 ft 210 kts 316°
2026-04-21 21:44 -52.94983 -70.98418 3848 ft 230 kts 315°
2026-04-21 21:45 -52.94001 -71.00131 4227 ft 245 kts 315°
2026-04-21 21:45 -52.92985 -71.01913 4740 ft 254 kts 315°
2026-04-21 21:45 -52.91954 -71.03729 5431 ft 255 kts 315°
2026-04-21 21:45 -52.90930 -71.05535 6139 ft 255 kts 315°
2026-04-21 21:46 -52.89900 -71.07346 6815 ft 256 kts 315°
2026-04-21 21:46 -52.88860 -71.09126 7437 ft 258 kts 316°
2026-04-21 21:46 -52.87784 -71.10940 8087 ft 259 kts 316°
2026-04-21 21:46 -52.86709 -71.12753 8749 ft 260 kts 316°
2026-04-21 21:47 -52.85648 -71.14542 9392 ft 260 kts 316°
2026-04-21 21:47 -52.84563 -71.16371 9991 ft 261 kts 315°
2026-04-21 21:47 -52.83471 -71.18212 10558 ft 264 kts 316°
2026-04-21 21:47 -52.82330 -71.20136 10845 ft 277 kts 315°
2026-04-21 21:48 -52.81150 -71.22127 11105 ft 290 kts 315°
2026-04-21 21:48 -52.79908 -71.24219 11354 ft 303 kts 316°
2026-04-21 21:48 -52.78628 -71.26373 11587 ft 315 kts 316°
2026-04-21 21:48 -52.77281 -71.28635 11819 ft 327 kts 315°
2026-04-21 21:49 -52.75894 -71.30965 12041 ft 339 kts 315°
2026-04-21 21:49 -52.74485 -71.33334 12246 ft 350 kts 315°
2026-04-21 21:49 -52.72997 -71.35821 12474 ft 360 kts 316°
2026-04-21 21:49 -52.71455 -71.38215 12904 ft 363 kts 318°
2026-04-21 21:50 -52.69904 -71.40528 13463 ft 362 kts 318°
2026-04-21 21:50 -52.68315 -71.42906 14039 ft 362 kts 319°
2026-04-21 21:50 -52.66753 -71.45239 14587 ft 362 kts 318°
2026-04-21 21:50 -52.65169 -71.47605 15092 ft 363 kts 319°
2026-04-21 21:51 -52.63620 -71.49915 15507 ft 365 kts 319°
2026-04-21 21:51 -52.62032 -71.52277 15956 ft 366 kts 319°
2026-04-21 21:51 -52.60419 -71.54672 16379 ft 368 kts 319°
2026-04-21 21:51 -52.58801 -71.57072 16815 ft 369 kts 319°
2026-04-21 21:52 -52.57212 -71.59426 17266 ft 370 kts 320°
2026-04-21 21:52 -52.55582 -71.61848 17648 ft 372 kts 320°
2026-04-21 21:52 -52.53867 -71.64380 18052 ft 374 kts 320°
2026-04-21 21:52 -52.52037 -71.67082 18477 ft 376 kts 320°
2026-04-21 21:53 -52.50393 -71.69508 18848 ft 378 kts 321°
2026-04-21 21:53 -52.48714 -71.71988 19215 ft 380 kts 320°
2026-04-21 21:53 -52.47049 -71.74440 19569 ft 382 kts 321°
2026-04-21 21:53 -52.45372 -71.76906 19932 ft 383 kts 320°
2026-04-21 21:54 -52.43617 -71.79467 20394 ft 382 kts 321°